Regional Weather Roundup
Issued by NWS

Home | Current Version | Previous Version | Graphics & Text | Print | Product List | Glossary On
Versions: 1 2 3 4 5 6 7 8 9 10 11 12 13 14 15 16 17 18 19 20 21 22 23 24 25 26 27
000
ASUS45 KSLC 191210
RWRUT

UTAH REGIONAL WEATHER ROUNDUP
NATIONAL WEATHER SERVICE SALT LAKE CITY UT
500 AM MST SUN FEB 19 2017

UTZ001>011-023>025-191300-

NORTHERN UTAH

CITY           SKY/WX    TMP DP  RH WIND       PRES   REMARKS
BRIGHAM CITY     N/A     44  40  88 S5        29.64R
HILL AFB       LGT RAIN  42  38  87 NW6       29.62S
LOGAN          RAIN      43  38  82 SE10      29.62R
OGDEN          LGT RAIN  41  40  96 CALM      29.63R
SALT LAKE CITY CLOUDY    47  37  68 SE9       29.61S
TOOELE VALLEY  CLOUDY    48  37  66 S21       29.62R
WENDOVER       PTCLDY    39  34  81 NE5       29.59S
HEBER CITY     CLOUDY    39  32  75 CALM      29.65R
WEST JORDAN    CLOUDY    49  44  83 S8        29.63R

$$

UTZ011>015-024>027-191300-

CENTRAL/NORTHEAST UTAH

CITY           SKY/WX    TMP DP  RH WIND       PRES   REMARKS
PROVO AIRPORT  CLOUDY    46  35  65 SE7       29.66R
MOAB/CANYONLAN FOG       38  38 100 W3        29.69F VSB 1/4
DELTA          CLOUDY    43  36  75 SE7       29.66S
PRICE          CLOUDY    35  35 100 N5        29.71F WCI  31
RICHFIELD      CLOUDY    36  34  93 CALM      29.68F
ROOSEVELT      CLOUDY    36  34  93 CALM      29.75S
VERNAL         FOG       34  33  96 NW3       29.73S VSB 1/4

$$

UTZ013>016-019>022-027-191300-

SOUTHERN UTAH

CITY           SKY/WX    TMP DP  RH WIND       PRES   REMARKS
BRYCE CANYON   CLOUDY    33  32  96 S5        29.73S FOG     WCI  29
CEDAR CITY     CLOUDY    39  36  89 S5        29.68R
MILFORD        CLOUDY    39  36  89 S7        29.67S WCI  34
ST GEORGE      CLOUDY    47  46  97 W5        29.70S
HANKSVILLE     MOCLDY    37  37 100 SW3       29.74R
KANAB          CLOUDY    41  41 100 MISG      29.76R
BLANDING       CLOUDY    39  32  76 SE6       29.80S WCI  35

$$

REGIONAL REPORTS     COLORADO/ARIZONA

CITY           SKY/WX    TMP DP  RH WIND       PRES   REMARKS
CRAIG, CO      CLOUDY    29  26  89 CALM      29.76R
GRAND JUNCTION MOCLDY    38  36  92 E7        29.71F WCI  33
RIFLE, CO      CLOUDY    30  28  92 CALM      29.76S
MONTROSE, CO   CLOUDY    29  28  96 SE3       29.76F
CORTEZ, CO     CLOUDY    46  30  53 SE18      29.75R
COLORADO CITY  CLOUDY    43  41  93 SE3       29.75R
PAGE, AZ       LGT RAIN  44  36  73 CALM      29.70S
GRAND CANYON   LGT SNOW  32  32 100 SW13      29.76S FOG     WCI  22
KINGMAN, AZ    CLOUDY    43  39  86 CALM      29.75R
FLAGSTAFF, AZ  LGT SNOW  29  29 100 CALM      29.77R FOG

$$

REGIONAL REPORTS    NEVADA/IDAHO/WYOMING

CITY           SKY/WX    TMP DP  RH WIND       PRES   REMARKS
LAS VEGAS, NV  MOCLDY    50  45  83 S7        29.68R
ELY, NY        LGT RAIN  36  33  89 S10       29.65S WCI  28
ELKO, NV       CLOUDY    37  33  85 SW3       29.60S
POCATELLO, ID  CLOUDY    37  35  92 S5        29.59F WCI  33
BURLEY, ID     CLOUDY    41  35  79 SW9       29.56R
FORT BRIDGER,  CLOUDY    36  30  80 MISG      29.67S
EVANSTON, WY   CLOUDY    35  28  75 SW12      29.64S WCI  27
ROCK SPRINGS,  CLOUDY    39  30  70 S24G35    29.65S WCI  28
KEMMERER, WY     N/A     30  30 100 E3        29.64S

$$




USA.gov is the U.S. government's official web portal to all federal, state and local government web resources and services.